This is the latest recevied weather packets stored in our database for station/object JF7BTK-10. If no packets are shown the sender has not sent any weather packets the latest 10 day(s).
| Time | Temp. | Humidity | Pressure | Rain* | Wind** | Luminosity | Snow |
|---|---|---|---|---|---|---|---|
| 1777484633 | 4.44° C | 91% | 1013.5 hPa | 0 mm | - | - | - |
| 1777483734 | 3.89° C | 90% | 1013.9 hPa | 0 mm | - | - | - |
| 1777482834 | 3.89° C | 88% | 1013.8 hPa | 0 mm | - | - | - |
| 1777481934 | 4.44° C | 88% | 1013.8 hPa | 0 mm | - | - | - |
| 1777481032 | 5° C | 89% | 1013.6 hPa | 0 mm | - | - | - |
| 1777480134 | 5.56° C | 90% | 1013.5 hPa | 0 mm | - | - | - |
| 1777479234 | 5.56° C | 90% | 1013.6 hPa | 0 mm | - | - | - |
| 1777478334 | 6.11° C | 90% | 1013.7 hPa | 0 mm | - | - | - |
| 1777477434 | 6.11° C | 90% | 1012.6 hPa | 0 mm | - | - | - |
| 1777477052 | 6.11° C | 90% | 1013.9 hPa | 0 mm | - | - | - |
| 1777476532 | 6.11° C | 90% | 1013.8 hPa | 0 mm | - | - | - |
| 1777475632 | 6.11° C | 89% | 1013.9 hPa | 0 mm | - | - | - |
| 1777474732 | 6.67° C | 87% | 1013.9 hPa | 0 mm | - | - | - |
| 1777473830 | 6.67° C | 85% | 1013.9 hPa | 0 mm | - | - | - |
| 1777472931 | 6.67° C | 84% | 1013.8 hPa | 0 mm | - | - | - |
| 1777472030 | 7.22° C | 82% | 1013.8 hPa | 0 mm | - | - | - |
| 1777471132 | 7.78° C | 74% | 1013.6 hPa | 0 mm | - | - | - |
| 1777470231 | 8.89° C | 71% | 1013.6 hPa | 0 mm | - | - | - |
| 1777469330 | 8.89° C | 71% | 1013.7 hPa | 0 mm | - | - | - |
| 1777468431 | 9.44° C | 72% | 1013.6 hPa | 0 mm | - | - | - |
| 1777467530 | 8.89° C | 73% | 1013.5 hPa | 0 mm | - | - | - |
| 1777466630 | 9.44° C | 74% | 1013.4 hPa | 0 mm | - | - | - |
| 1777465730 | 8.89° C | 74% | 1013.2 hPa | 0 mm | - | - | - |
| 1777464831 | 9.44° C | 74% | 1013.4 hPa | 0 mm | - | - | - |
| 1777463931 | 9.44° C | 74% | 1013.2 hPa | 0 mm | - | - | - |
* Rain latest hour (hover to see other rain measurements)
** Current wind speed in m/s (hover to see current wind gust speed)